QPF
0.00 0.00 0.00 0.00 0.00 0.00 0.00 0.00 0.00 0.00 0.00 0.00 0.00 0.00 0.00 0.00 0.00 0.00 0.00 0.00 0.00 0.00 0.00 0.00 0.00 0.00 0.00 0.00 0.00 0.00 0.00 0.00 0.00 0.00 0.00 0.00 0.00 0.00 0.00 0.00 0.00 0.00 0.00
0.00 0.00 0.00 0.00 0.00 0.00 0.00 0.00 0.00 0.00 0.00 0.00 0.00 0.00 0.00 0.00 0.00 0.00 0.00 0.00 0.00 0.00 0.00 0.00 0.00 0.00 0.00 0.00 0.00 0.00 0.00 0.00 0.00 0.00 0.00 0.00 0.00 0.00 0.00 0.00 0.00 0.00 0.00
0.00 0.00 0.00 0.00 0.00 0.00 0.00 0.00 0.00 0.00 0.00 0.00 0.00 0.00 0.00 0.00 0.00 0.00 0.00 0.00 0.00 0.00 0.00 0.00 0.00 0.00 0.00 0.00 0.00 0.00 0.00 0.00 0.00 0.00 0.00 0.00 0.00 0.00 0.00 0.00 0.00 0.00 0.00
0.00 0.00 0.00 0.00 0.00 0.00 0.00 0.00 0.00 0.00 0.00 0.00 0.00 0.00 0.00 0.00 0.00 0.00 0.00 0.00 0.00 0.00 0.00 0.00 0.00 0.00 0.00 0.00 0.00 0.00 0.00 0.00 0.00 0.00 0.00 0.00 0.00 0.00 0.00 0.00 0.00 0.00 0.00
0.00 0.00 0.00 0.00 0.00 0.00 0.00 0.00 0.00 0.00 0.00 0.00 0.00 0.00 0.00 0.00 0.00 0.00 0.00 0.00 0.00 0.00 0.00 0.00 0.00 0.00 0.00 0.00 0.00 0.00 0.00 0.00 0.00 0.00 0.00 0.00 0.00 0.00 0.00 0.00 0.00 0.00 0.00
0.00 0.00 0.00 0.00 0.00 0.00 0.00 0.00 0.00 0.00 0.00 0.00 0.00 0.00 0.00 0.00 0.00 0.00 0.00 0.00 0.00 0.00 0.00 0.00 0.00 0.00 0.00 0.00 0.00 0.00 0.00 0.00 0.00 0.00 0.00 0.00 0.00 0.00 0.00 0.00 0.00 0.00 0.00
0.00 0.00 0.00 0.00 0.00 0.00 0.00 0.00 0.00 0.00 0.00 0.00 0.00 0.00 0.00 0.00 0.00 0.00 0.00 0.00 0.00 0.00 0.00 0.00 0.00 0.00 0.00 0.00 0.00 0.00 0.00 0.00 0.00 0.00 0.00 0.00 0.00 0.00 0.00 0.00 0.00 0.00 0.00
0.00 0.00 0.00 0.00 0.00 0.00 0.00 0.00 0.00 0.00 0.00 0.00 0.00 0.00 0.00 0.00 0.00 0.00 0.00 0.00 0.00 0.00 0.00 0.00 0.00 0.00 0.00 0.00 0.00 0.00 0.00 0.00 0.00 0.00 0.00 0.00 0.00 0.00 0.00 0.00 0.00 0.00 0.00
0.00 0.00 0.00 0.00 0.00 0.00 0.00 0.00 0.00 0.00 0.00 0.00 0.00 0.00 0.00 0.00 0.00 0.00 0.00 0.00 0.00 0.00 0.00 0.00 0.00 0.00 0.00 0.00 0.00 0.00 0.00 0.00 0.00 0.00 0.00 0.00 0.00 0.00 0.00 0.00 0.00 0.00 0.00
0.00 0.00 0.00 0.00 0.00 0.00 0.00 0.00 0.00 0.00 0.00 0.00 0.00 0.00 0.00 0.00 0.00 0.00 0.00 0.00 0.00 0.00 0.00 0.00 0.00 0.00 0.00 0.00 0.00 0.00 0.00 0.00 0.00 0.00 0.00 0.00 0.00 0.00 0.00 0.00 0.00 0.00 0.00
0.00 0.00 0.00 0.00 0.00 0.00 0.00 0.00 0.00 0.00 0.00 0.00 0.00 0.00 0.00 0.00 0.00 0.00 0.00 0.00 0.00 0.00 0.00 0.00 0.00 0.00 0.00 0.00 0.00 0.00 0.00 0.00 0.00 0.00 0.00 0.00 0.00 0.00 0.00 0.00 0.00 0.00 0.00
0.00 0.00 0.00 0.00 0.00 0.00 0.00 0.00 0.00 0.00 0.00 0.00 0.00 0.00 0.00 0.00 0.00 0.00 0.00 0.00 0.00 0.00 0.00 0.00 0.00 0.00 0.00 0.00 0.00 0.00 0.00 0.00 0.00 0.00 0.00 0.00 0.00 0.00 0.00 0.00 0.00 0.00 0.00
0.01 0.00 0.00 0.00 0.00 0.00 0.00 0.00 0.00 0.00 0.00 0.00 0.00 0.00 0.00 0.00 0.00 0.00 0.00 0.00 0.00 0.00 0.00 0.00 0.00 0.00 0.00 0.00 0.00 0.00 0.00 0.00 0.00 0.00 0.00 0.00 0.00 0.00 0.00 0.00 0.00 0.00 0.00
0.04 0.00 0.00 0.00 0.00 0.00 0.00 0.00 0.00 0.00 0.00 0.00 0.00 0.00 0.00 0.00 0.00 0.00 0.00 0.00 0.00 0.00 0.00 0.00 0.00 0.00 0.00 0.00 0.00 0.00 0.00 0.00 0.00 0.00 0.00 0.00 0.00 0.00 0.00 0.00 0.00 0.00 0.00
0.22 0.04 0.00 0.00 0.00 0.00 0.00 0.00 0.00 0.00 0.00 0.00 0.00 0.00 0.00 0.00 0.00 0.00 0.00 0.00 0.00 0.00 0.00 0.00 0.00 0.00 0.00 0.00 0.00 0.00 0.00 0.00 0.00 0.00 0.00 0.00 0.00 0.00 0.00 0.00 0.00 0.00 0.00
0.29 0.10 0.01 0.00 0.00 0.00 0.00 0.00 0.00 0.00 0.00 0.00 0.00 0.00 0.00 0.00 0.00 0.00 0.00 0.00 0.00 0.00 0.00 0.00 0.00 0.00 0.00 0.00 0.00 0.00 0.00 0.00 0.00 0.00 0.00 0.00 0.00 0.00 0.00 0.00 0.00 0.00 0.00
0.30 0.16 0.05 0.00 0.00 0.00 0.00 0.00 0.00 0.00 0.00 0.00 0.00 0.00 0.00 0.00 0.00 0.00 0.00 0.00 0.00 0.00 0.00 0.00 0.00 0.00 0.00 0.00 0.00 0.00 0.00 0.00 0.00 0.00 0.00 0.00 0.00 0.00 0.00 0.00 0.00 0.00 0.00
0.15 0.17 0.07 0.01 0.00 0.00 0.00 0.00 0.00 0.00 0.00 0.00 0.00 0.00 0.00 0.00 0.00 0.00 0.00 0.00 0.00 0.00 0.00 0.00 0.00 0.00 0.00 0.00 0.00 0.00 0.00 0.00 0.00 0.00 0.00 0.00 0.00 0.00 0.00 0.00 0.00 0.00 0.00
0.11 0.04 0.03 0.00 0.00 0.00 0.00 0.00 0.00 0.00 0.00 0.00 0.00 0.00 0.00 0.00 0.00 0.00 0.00 0.00 0.00 0.00 0.00 0.00 0.00 0.00 0.00 0.00 0.00 0.00 0.00 0.00 0.00 0.00 0.00 0.00 0.00 0.00 0.00 0.00 0.00 0.00 0.00
0.07 0.03 0.00 0.00 0.00 0.00 0.00 0.00 0.00 0.00 0.00 0.00 0.00 0.00 0.00 0.00 0.00 0.00 0.00 0.00 0.00 0.00 0.00 0.00 0.00 0.00 0.00 0.00 0.00 0.00 0.00 0.00 0.00 0.00 0.00 0.00 0.00 0.00 0.00 0.00 0.00 0.00 0.00
0.04 0.01 0.00 0.00 0.00 0.00 0.00 0.00 0.00 0.00 0.00 0.00 0.00 0.00 0.00 0.00 0.00 0.00 0.00 0.00 0.00 0.00 0.00 0.00 0.00 0.00 0.00 0.00 0.00 0.00 0.00 0.00 0.00 0.00 0.00 0.00 0.00 0.00 0.00 0.00 0.00 0.00 0.00
0.03 0.01 0.00 0.00 0.00 0.00 0.00 0.00 0.00 0.00 0.00 0.00 0.00 0.00 0.00 0.00 0.00 0.00 0.00 0.00 0.00 0.00 0.00 0.00 0.00 0.00 0.00 0.00 0.00 0.00 0.00 0.00 0.00 0.00 0.00 0.00 0.00 0.00 0.00 0.00 0.00 0.00 0.00
0.04 0.02 0.00 0.00 0.00 0.00 0.00 0.00 0.00 0.00 0.00 0.00 0.00 0.00 0.00 0.00 0.00 0.00 0.00 0.00 0.00 0.00 0.00 0.00 0.00 0.00 0.00 0.00 0.00 0.00 0.00 0.00 0.00 0.00 0.00 0.00 0.00 0.00 0.00 0.00 0.00 0.00 0.00
0.05 0.02 0.00 0.00 0.00 0.00 0.00 0.00 0.00 0.00 0.00 0.00 0.00 0.00 0.00 0.00 0.00 0.00 0.00 0.00 0.00 0.00 0.00 0.00 0.00 0.00 0.00 0.00 0.00 0.00 0.00 0.00 0.00 0.00 0.00 0.00 0.00 0.00 0.00 0.00 0.00 0.00 0.00
0.01 0.02 0.02 0.01 0.00 0.00 0.00 0.00 0.00 0.00 0.00 0.00 0.00 0.00 0.00 0.00 0.00 0.00 0.00 0.00 0.00 0.00 0.00 0.00 0.00 0.00 0.00 0.00 0.00 0.00 0.00 0.00 0.00 0.00 0.00 0.00 0.00 0.00 0.00 0.00 0.00 0.00 0.00
0.00 0.00 0.00 0.00 0.00 0.00 0.00 0.00 0.00 0.00 0.00 0.00 0.00 0.00 0.00 0.00 0.00 0.00 0.00 0.00 0.00 0.00 0.00 0.00 0.00 0.00 0.00 0.00 0.00 0.00 0.00 0.00 0.00 0.00 0.00 0.00 0.00 0.00 0.00 0.00 0.00 0.00 0.00
MSLP
1018.31 1019.21 1020.18 1020.73 1021.52 1022.01 1022.37 1023.33 1024.17 1024.59 1025.65 1025.62 1025.98 1026.19 1026.41 1026.74 1026.99 1027.19 1027.34 1027.71 1027.72 1027.94 1028.15 1027.82 1027.74 1027.75 1027.86 1028.10 1028.13 1028.43 1028.33 1028.47 1028.47 1028.43 1028.29 1028.19 1027.99 1027.66 1027.38 1027.16 1026.95 1026.70 1026.40
1018.17 1018.93 1020.17 1021.04 1021.94 1022.42 1022.79 1023.43 1024.28 1024.89 1025.63 1026.08 1026.34 1026.71 1027.02 1027.17 1027.31 1027.87 1027.83 1028.24 1028.30 1028.53 1028.75 1028.54 1028.24 1028.12 1028.21 1028.38 1028.40 1028.64 1028.80 1028.74 1028.89 1028.99 1028.89 1028.72 1028.45 1028.14 1027.75 1027.45 1027.20 1026.90 1026.57
1017.95 1018.97 1020.08 1021.04 1022.14 1022.74 1023.17 1023.90 1024.75 1025.46 1025.84 1026.51 1026.76 1027.40 1027.58 1027.83 1027.91 1028.41 1028.33 1028.95 1028.84 1029.22 1029.29 1029.18 1028.98 1028.61 1028.73 1028.80 1028.68 1028.71 1029.11 1029.08 1029.09 1029.22 1029.12 1028.99 1028.79 1028.46 1028.04 1027.69 1027.37 1027.07 1026.71
1017.83 1018.86 1019.96 1021.14 1022.15 1022.73 1023.36 1024.04 1024.54 1025.47 1026.04 1026.80 1027.06 1027.81 1028.06 1028.47 1028.53 1028.88 1028.97 1029.05 1029.42 1029.66 1030.03 1029.83 1029.79 1029.21 1029.20 1029.36 1029.21 1028.95 1029.14 1029.42 1029.24 1029.19 1029.15 1029.12 1028.87 1028.53 1028.18 1027.81 1027.43 1027.09 1026.75
1017.57 1018.51 1019.90 1021.19 1022.12 1022.66 1023.65 1024.12 1024.87 1025.19 1026.20 1027.10 1027.49 1027.99 1028.70 1028.68 1029.00 1029.25 1029.22 1029.27 1029.50 1030.04 1030.53 1030.29 1030.48 1030.16 1029.68 1029.78 1029.67 1029.32 1029.21 1029.40 1029.45 1029.15 1029.04 1028.90 1028.80 1028.57 1028.20 1027.80 1027.38 1027.00 1026.67
1017.49 1018.43 1019.86 1021.13 1022.01 1022.88 1023.64 1024.34 1024.78 1025.83 1026.45 1027.09 1027.64 1028.42 1029.11 1029.10 1029.36 1029.30 1029.65 1029.34 1029.49 1030.00 1030.73 1030.89 1030.80 1030.78 1030.15 1030.15 1030.14 1029.83 1029.47 1029.37 1029.49 1029.27 1028.98 1028.83 1028.67 1028.51 1028.18 1027.79 1027.38 1026.97 1026.55
1017.46 1018.38 1019.51 1020.77 1021.76 1022.69 1023.38 1023.96 1024.91 1025.95 1027.05 1027.48 1027.50 1028.91 1029.37 1029.49 1029.59 1029.55 1029.79 1029.61 1029.63 1029.87 1030.48 1030.99 1030.97 1031.01 1030.70 1030.62 1030.62 1030.48 1029.93 1029.60 1029.46 1029.37 1029.04 1028.74 1028.52 1028.25 1027.99 1027.66 1027.31 1026.88 1026.46
1017.70 1018.44 1019.11 1020.12 1021.23 1022.66 1023.30 1023.76 1024.49 1025.64 1026.68 1027.13 1027.34 1028.10 1029.15 1029.73 1029.63 1029.73 1029.84 1029.69 1029.57 1029.88 1030.04 1030.67 1030.98 1031.10 1030.91 1030.61 1030.81 1030.83 1030.50 1029.99 1029.57 1029.37 1029.13 1028.79 1028.48 1028.15 1027.83 1027.51 1027.15 1026.77 1026.41
1018.27 1018.33 1019.24 1019.64 1021.06 1021.79 1022.62 1022.94 1024.13 1024.34 1025.53 1027.00 1027.16 1027.09 1028.45 1028.45 1029.10 1029.69 1029.71 1029.70 1029.62 1029.89 1029.86 1030.14 1030.70 1030.92 1031.07 1030.80 1030.83 1030.96 1030.84 1030.30 1029.77 1029.40 1029.17 1028.78 1028.42 1027.98 1027.56 1027.28 1027.01 1026.74 1026.37
1018.48 1018.88 1018.90 1019.68 1020.73 1021.27 1021.98 1022.60 1023.58 1023.93 1024.48 1025.71 1027.24 1027.26 1027.25 1027.30 1027.96 1029.05 1029.43 1029.43 1029.74 1029.70 1029.88 1029.85 1030.27 1030.62 1030.82 1030.97 1030.83 1030.92 1030.80 1030.41 1030.00 1029.57 1029.16 1028.80 1028.31 1027.94 1027.52 1027.10 1026.94 1026.72 1026.40
1018.32 1018.84 1018.75 1019.72 1020.52 1020.98 1021.34 1022.07 1023.04 1023.60 1024.06 1024.98 1025.62 1026.63 1027.35 1027.35 1027.29 1027.27 1028.42 1028.90 1029.51 1029.45 1029.80 1029.68 1029.79 1030.19 1030.67 1030.87 1030.82 1030.82 1030.77 1030.22 1029.91 1029.65 1029.20 1028.81 1028.31 1027.93 1027.68 1027.25 1026.80 1026.47 1026.21
1017.72 1018.33 1018.87 1019.57 1020.05 1020.54 1020.80 1021.68 1022.41 1023.06 1023.58 1024.31 1025.07 1025.55 1026.02 1026.49 1026.86 1026.92 1027.57 1028.42 1028.53 1029.02 1029.50 1029.71 1029.57 1029.70 1030.23 1030.47 1030.73 1030.73 1030.61 1030.29 1029.89 1029.43 1029.05 1028.74 1028.39 1028.06 1027.76 1027.33 1026.83 1026.33 1025.89
1017.06 1017.74 1018.33 1019.14 1019.64 1019.97 1020.53 1021.35 1022.03 1022.67 1023.24 1023.80 1024.51 1024.80 1025.71 1025.96 1026.25 1026.63 1027.01 1027.86 1028.36 1028.82 1028.98 1029.38 1029.27 1029.36 1029.82 1030.22 1030.33 1030.52 1030.46 1030.20 1029.92 1029.36 1029.01 1028.64 1028.32 1028.05 1027.65 1027.21 1026.61 1026.00 1025.60
1015.58 1016.85 1017.65 1018.36 1018.96 1019.21 1020.26 1020.85 1021.48 1022.17 1022.70 1023.44 1024.23 1024.57 1025.34 1025.69 1026.07 1026.23 1026.49 1026.87 1028.08 1028.47 1028.75 1028.50 1029.06 1029.19 1029.39 1029.72 1029.96 1030.31 1030.23 1030.07 1029.74 1029.16 1028.79 1028.52 1028.07 1027.77 1027.40 1026.89 1026.36 1025.83 1025.18
1014.83 1016.16 1017.06 1017.74 1018.29 1018.82 1019.73 1020.09 1020.93 1021.67 1022.53 1023.13 1023.76 1024.49 1024.91 1025.11 1025.95 1026.19 1026.29 1026.28 1026.52 1027.54 1027.77 1028.24 1028.50 1028.85 1028.97 1029.34 1029.71 1029.93 1029.83 1029.60 1029.35 1029.07 1028.61 1028.28 1027.99 1027.57 1027.03 1026.50 1025.93 1025.34 1024.86
1014.30 1015.27 1016.54 1017.21 1017.75 1018.66 1019.26 1019.85 1020.50 1021.17 1021.97 1022.64 1023.45 1024.22 1024.65 1024.81 1025.66 1025.98 1026.33 1026.26 1026.55 1026.60 1027.06 1027.62 1028.30 1028.67 1028.87 1028.99 1029.27 1029.43 1029.49 1029.12 1029.06 1028.79 1028.37 1027.91 1027.55 1027.22 1026.74 1026.23 1025.59 1025.00 1024.47
1013.41 1014.59 1015.45 1016.47 1017.32 1017.97 1018.69 1019.33 1019.91 1020.57 1021.44 1022.21 1022.97 1023.47 1023.99 1024.47 1025.03 1025.71 1026.03 1026.40 1026.63 1026.79 1026.82 1027.73 1028.25 1028.79 1028.74 1028.70 1028.81 1029.10 1029.17 1028.70 1028.64 1028.48 1028.05 1027.62 1027.20 1026.81 1026.21 1025.81 1025.19 1024.45 1023.94
1012.83 1013.75 1014.92 1015.95 1016.71 1017.42 1017.94 1018.70 1019.22 1019.95 1020.46 1021.50 1022.05 1022.70 1023.42 1024.22 1024.54 1025.18 1025.39 1026.07 1026.47 1026.63 1026.70 1027.02 1027.95 1028.36 1028.37 1028.80 1028.55 1028.82 1028.74 1028.37 1028.23 1027.95 1027.61 1027.05 1026.58 1026.34 1025.83 1025.46 1024.76 1023.90 1023.32
1012.72 1013.66 1014.47 1015.23 1015.89 1016.75 1017.46 1017.89 1018.57 1019.28 1019.74 1020.08 1021.07 1021.70 1022.45 1023.51 1024.11 1024.41 1024.84 1025.68 1026.46 1026.46 1026.66 1026.89 1027.64 1028.26 1028.23 1028.72 1028.37 1028.48 1028.38 1027.92 1027.84 1027.47 1027.05 1026.75 1026.29 1025.82 1025.35 1024.82 1024.17 1023.25 1022.80
1012.19 1013.11 1014.12 1014.45 1015.30 1016.14 1016.38 1017.24 1017.86 1018.40 1019.00 1019.82 1020.55 1021.08 1021.53 1022.28 1022.73 1023.60 1023.90 1025.00 1026.05 1026.31 1026.49 1026.91 1027.44 1027.66 1028.04 1028.43 1028.35 1028.34 1027.78 1027.50 1027.00 1026.79 1026.36 1026.36 1025.79 1025.29 1024.97 1024.38 1023.52 1022.77 1022.50
1011.56 1012.70 1013.78 1014.40 1014.90 1015.24 1015.79 1016.56 1017.21 1017.65 1018.36 1019.08 1019.91 1020.49 1021.03 1021.38 1021.65 1022.22 1023.09 1023.98 1025.21 1025.72 1025.99 1026.47 1027.14 1027.36 1027.69 1027.78 1027.84 1028.10 1027.73 1027.51 1026.49 1026.57 1026.20 1025.66 1025.21 1024.88 1024.32 1023.73 1022.68 1022.11 1021.88
1011.17 1012.12 1013.07 1013.55 1014.03 1014.43 1015.04 1015.69 1016.09 1016.96 1017.53 1018.22 1019.12 1020.09 1020.60 1020.99 1021.35 1021.85 1022.34 1022.80 1023.47 1024.29 1024.99 1025.72 1026.18 1026.65 1026.95 1027.18 1027.66 1027.78 1027.94 1027.81 1027.12 1026.47 1026.31 1024.94 1024.78 1024.29 1023.95 1023.23 1021.88 1021.46 1021.26
1010.50 1011.22 1012.18 1012.69 1013.24 1013.75 1014.49 1014.93 1015.78 1016.15 1016.93 1017.75 1018.41 1019.17 1020.18 1020.52 1020.92 1021.39 1021.91 1022.43 1023.02 1023.46 1023.81 1024.45 1025.18 1025.73 1026.28 1026.68 1027.26 1027.41 1027.80 1027.98 1027.50 1026.35 1026.35 1025.12 1023.91 1023.47 1023.29 1022.71 1021.15 1020.87 1020.58
1009.96 1010.38 1011.66 1012.17 1012.83 1013.56 1013.87 1014.28 1014.79 1015.63 1016.60 1017.34 1017.83 1018.73 1019.53 1019.99 1020.36 1020.93 1021.60 1022.02 1022.76 1023.22 1023.53 1024.20 1024.71 1025.29 1025.93 1026.67 1026.79 1026.98 1027.44 1027.58 1026.96 1026.12 1026.01 1025.29 1023.82 1023.32 1022.73 1021.99 1020.66 1020.36 1020.10
1009.50 1010.04 1010.48 1011.56 1012.44 1013.15 1013.58 1014.09 1014.80 1015.92 1016.76 1016.76 1017.51 1018.26 1019.03 1019.37 1019.57 1020.37 1020.86 1021.79 1022.59 1023.22 1023.54 1024.17 1024.71 1025.12 1025.64 1026.23 1026.78 1026.96 1027.23 1027.52 1026.89 1025.95 1026.01 1025.88 1024.06 1022.73 1021.81 1021.09 1020.48 1020.04 1019.85
1009.74 1009.89 1010.49 1011.08 1011.94 1012.86 1013.15 1013.66 1014.11 1014.90 1015.71 1016.83 1017.43 1017.82 1018.35 1018.61 1019.28 1019.66 1020.11 1020.74 1021.55 1022.16 1022.96 1024.02 1024.52 1025.21 1025.70 1026.12 1026.54 1026.84 1026.97 1027.33 1027.46 1026.68 1026.09 1026.04 1024.87 1024.26 1021.90 1020.46 1020.22 1019.84 1019.06
Thickness
5664 5664 5663 5664 5663 5664 5666 5663 5660 5660 5653 5657 5658 5657 5657 5655 5654 5652 5651 5648 5647 5645 5642 5645 5644 5644 5642 5640 5638 5635 5634 5632 5631 5631 5632 5632 5632 5633 5635 5635 5636 5637 5638
5657 5659 5658 5657 5654 5655 5658 5658 5654 5654 5650 5650 5651 5650 5649 5649 5650 5644 5646 5641 5640 5638 5634 5636 5639 5638 5637 5635 5635 5631 5629 5629 5626 5625 5625 5626 5627 5629 5631 5632 5632 5633 5634
5654 5653 5653 5651 5647 5647 5651 5651 5648 5645 5645 5642 5644 5641 5641 5641 5642 5636 5640 5635 5636 5630 5628 5629 5631 5633 5631 5629 5630 5629 5625 5625 5623 5621 5621 5622 5623 5624 5626 5628 5629 5629 5630
5649 5647 5647 5644 5642 5641 5644 5642 5643 5640 5639 5636 5638 5632 5633 5632 5634 5630 5630 5633 5629 5625 5620 5621 5621 5626 5625 5622 5623 5625 5622 5619 5620 5619 5618 5617 5617 5619 5621 5622 5624 5624 5625
5645 5643 5640 5637 5635 5637 5635 5635 5635 5637 5633 5629 5629 5626 5624 5625 5626 5624 5624 5628 5626 5620 5613 5615 5613 5615 5619 5616 5616 5618 5618 5615 5614 5616 5615 5614 5613 5613 5615 5616 5618 5618 5619
5638 5638 5634 5630 5628 5628 5629 5628 5630 5626 5626 5625 5623 5619 5615 5618 5618 5619 5616 5622 5622 5618 5610 5608 5609 5608 5612 5610 5608 5609 5612 5612 5610 5610 5611 5611 5609 5608 5609 5610 5611 5612 5613
5630 5630 5629 5624 5621 5622 5622 5623 5621 5619 5614 5614 5618 5609 5608 5610 5610 5613 5611 5616 5617 5615 5608 5604 5604 5603 5606 5604 5602 5601 5604 5606 5605 5604 5605 5606 5606 5605 5605 5605 5606 5607 5607
5617 5618 5622 5621 5618 5614 5614 5617 5618 5614 5610 5611 5613 5612 5609 5605 5605 5606 5607 5610 5613 5610 5608 5602 5600 5599 5600 5601 5597 5595 5595 5598 5598 5598 5599 5600 5600 5600 5600 5600 5600 5601 5601
5602 5611 5611 5616 5612 5612 5612 5614 5612 5617 5613 5604 5606 5616 5606 5617 5605 5600 5602 5605 5608 5606 5606 5602 5597 5596 5594 5595 5593 5590 5588 5591 5593 5592 5593 5595 5595 5596 5596 5595 5594 5594 5594
5589 5596 5605 5606 5605 5607 5608 5608 5606 5610 5612 5608 5599 5602 5605 5609 5614 5606 5599 5601 5601 5601 5600 5601 5596 5593 5591 5589 5589 5586 5584 5585 5585 5586 5586 5587 5590 5590 5590 5590 5587 5585 5585
5581 5585 5595 5595 5596 5601 5603 5604 5603 5605 5609 5606 5606 5599 5597 5599 5602 5613 5607 5602 5594 5596 5593 5596 5594 5591 5586 5584 5583 5581 5579 5581 5581 5580 5580 5580 5582 5582 5581 5581 5581 5580 5578
5578 5581 5584 5585 5589 5593 5598 5598 5600 5602 5603 5603 5602 5601 5601 5604 5603 5604 5605 5596 5600 5592 5588 5588 5590 5589 5584 5581 5577 5575 5575 5574 5576 5576 5575 5574 5573 5573 5572 5572 5572 5571 5569
5576 5579 5581 5580 5584 5588 5591 5589 5592 5594 5597 5598 5597 5598 5596 5597 5597 5596 5597 5590 5593 5586 5586 5583 5585 5585 5581 5576 5574 5570 5569 5568 5568 5569 5567 5567 5566 5566 5565 5564 5563 5563 5561
5580 5574 5574 5575 5578 5584 5582 5586 5586 5587 5591 5589 5589 5590 5589 5589 5590 5592 5592 5592 5584 5581 5579 5585 5579 5578 5577 5573 5569 5564 5562 5562 5561 5563 5562 5560 5561 5560 5558 5557 5555 5554 5554
5578 5572 5570 5572 5575 5577 5577 5581 5582 5582 5581 5581 5581 5580 5583 5586 5583 5583 5584 5587 5591 5583 5584 5576 5577 5571 5570 5566 5561 5557 5556 5558 5556 5555 5555 5554 5552 5552 5551 5550 5549 5547 5545
5575 5571 5566 5568 5570 5571 5572 5574 5576 5575 5575 5575 5575 5574 5577 5579 5576 5576 5574 5576 5575 5578 5582 5572 5566 5562 5560 5559 5554 5551 5549 5551 5549 5547 5546 5546 5544 5542 5541 5540 5539 5537 5536
5574 5569 5565 5565 5565 5568 5569 5570 5570 5570 5570 5571 5571 5572 5573 5571 5572 5569 5567 5565 5564 5564 5570 5561 5556 5551 5550 5550 5546 5543 5541 5543 5541 5540 5538 5536 5535 5534 5533 5530 5530 5529 5527
5568 5567 5563 5559 5561 5562 5565 5565 5566 5566 5570 5567 5569 5569 5569 5564 5565 5561 5562 5559 5556 5556 5559 5560 5550 5545 5543 5539 5538 5535 5533 5534 5533 5532 5530 5530 5529 5525 5524 5520 5520 5520 5517
5560 5559 5558 5559 5561 5560 5560 5562 5561 5561 5562 5568 5566 5568 5566 5558 5557 5557 5556 5550 5546 5547 5548 5548 5542 5533 5534 5529 5530 5528 5524 5524 5525 5525 5523 5522 5520 5518 5515 5513 5510 5510 5506
5556 5558 5556 5559 5556 5555 5560 5557 5558 5559 5560 5560 5559 5560 5560 5556 5557 5552 5551 5544 5536 5538 5538 5536 5531 5528 5525 5521 5520 5519 5520 5517 5519 5517 5516 5514 5511 5510 5504 5503 5502 5500 5495
5553 5552 5548 5548 5550 5554 5555 5551 5551 5553 5552 5553 5551 5551 5551 5552 5553 5551 5546 5540 5532 5531 5531 5528 5522 5519 5517 5515 5515 5509 5509 5507 5512 5507 5508 5507 5506 5502 5497 5494 5494 5490 5484
5546 5545 5543 5544 5546 5549 5548 5546 5548 5548 5550 5548 5547 5541 5542 5541 5542 5541 5539 5537 5534 5529 5525 5521 5518 5514 5510 5508 5501 5498 5495 5494 5498 5498 5498 5502 5497 5495 5489 5485 5486 5480 5474
5542 5542 5539 5541 5541 5543 5542 5544 5542 5546 5544 5543 5542 5538 5531 5532 5532 5530 5528 5526 5524 5522 5523 5518 5513 5509 5503 5499 5492 5488 5484 5480 5480 5486 5485 5494 5494 5491 5483 5479 5479 5473 5465
5537 5539 5534 5534 5534 5533 5536 5538 5540 5537 5535 5533 5534 5529 5525 5525 5524 5521 5518 5518 5515 5512 5513 5508 5504 5499 5492 5485 5482 5479 5474 5470 5472 5474 5473 5479 5484 5482 5478 5474 5471 5464 5456
5533 5533 5533 5527 5525 5524 5527 5528 5528 5524 5522 5526 5523 5519 5516 5516 5518 5514 5513 5509 5504 5501 5501 5495 5490 5487 5480 5474 5469 5465 5462 5456 5460 5464 5460 5458 5468 5475 5476 5472 5463 5454 5446
5521 5524 5524 5522 5519 5514 5516 5518 5519 5518 5517 5511 5509 5510 5510 5512 5507 5508 5508 5505 5500 5497 5490 5482 5479 5472 5467 5462 5457 5452 5450 5444 5440 5445 5445 5444 5445 5445 5464 5470 5457 5445 5441